Atlanta Fulton, GA

2:48 PM EST on December 05, 2019 (GMT -0500)
Fulton County-Brown

Weather History for KFTY - November, 2019

Change the Weather History Date:

Saturday, November 16, 2019

  Actual Average Record
Temperature  
Mean Temperature 52 °F 53 °F  
Max Temperature 64 °F 64 °F 73 °F (2001)
Min Temperature 39 °F 42 °F 30 °F (1997)
Degree Days  
Heating Degree Days 13 12  
Month to date heating degree days 272 163  
Since 1 July heating degree days 343 306  
Growing Degree Days 1 (Base 50)    
Moisture  
Dew Point 36 °F    
Average Humidity 60    
Maximum Humidity 83    
Minimum Humidity 36    
Precipitation  
Precipitation 0.00 in 0.16 in 1.32 in (2014)
Month to date precipitation 1.83 2.07  
Year to date precipitation 38.63 45.08  
Snow  
Snow 0.00 in - - ()
Month to date snowfall 0.0  
Since 1 July snowfall 0.0  
Since 1 September snowfall 0.0  
Snow Depth 0.00 in    
Sea Level Pressure  
Sea Level Pressure 30.07 in    
Wind  
Wind Speed 3 mph (NNW)    
Max Wind Speed 13 mph    
Max Gust Speed 15 mph    
Visibility 10 miles    
Events      
T = Trace of Precipitation, MM = Missing Value Source: NWS Daily Summary

Daily Weather History Graph

Daily Weather History Graph

Search for Another Location

Airport or City:

Astronomy

Nov. 16, 2019 Rise Set
Actual Time 7:10 AM EST 5:34 PM EST
Civil Twilight 6:44 AM EST 6:00 PM EST
Nautical Twilight 6:14 AM EST 6:31 PM EST
Astronomical Twilight 5:44 AM EST 7:00 PM EST
Moon 9:11 PM EST (11/16) 10:58 AM EST (11/16)
Length of Visible Light 11h 16m
Length of Day
10h 23m
Waning Gibbous, 82% of the Moon is Illuminated
Nov 16
Waning Gibbous
Nov 19
Last Quarter
Nov 26
New
Dec 4
First Quarter
Dec 12
Full

Hourly Weather History & Observations

Time (EST) Temp. Windchill Dew Point Humidity Pressure Visibility Wind Dir Wind Speed Gust Speed Precip Events Conditions
12:53 AM 43.0 °F - 37.0 °F 80% 30.06 in 10.0 mi Calm Calm - N/A   Partly Cloudy
1:53 AM 42.1 °F - 35.1 °F 76% 30.06 in 10.0 mi Calm Calm - N/A   Clear
2:53 AM 41.0 °F - 34.0 °F 76% 30.06 in 10.0 mi Calm Calm - N/A   Mostly Cloudy
3:53 AM 39.9 °F - 33.1 °F 77% 30.06 in 10.0 mi Calm Calm - N/A   Partly Cloudy
4:53 AM 39.9 °F 37.8 °F 32.0 °F 73% 30.07 in 10.0 mi Variable 3.5 mph - N/A   Mostly Cloudy
5:53 AM 39.9 °F - 34.0 °F 79% 30.08 in 10.0 mi Calm Calm - N/A   Overcast
6:53 AM 39.9 °F 36.7 °F 33.1 °F 77% 30.10 in 10.0 mi NW 4.6 mph - N/A   Overcast
7:53 AM 39.9 °F 37.8 °F 33.1 °F 77% 30.11 in 10.0 mi NW 3.5 mph - N/A   Overcast
8:53 AM 42.1 °F 39.2 °F 33.1 °F 70% 30.11 in 10.0 mi NNW 4.6 mph - N/A   Overcast
9:53 AM 46.0 °F 43.9 °F 34.0 °F 63% 30.11 in 10.0 mi NNW 4.6 mph - N/A   Mostly Cloudy
10:53 AM 50.0 °F - 35.1 °F 57% 30.11 in 10.0 mi WNW 6.9 mph - N/A   Clear
11:53 AM 55.9 °F - 37.0 °F 49% 30.07 in 10.0 mi East 3.5 mph - N/A   Clear
12:53 PM 61.0 °F - 37.0 °F 41% 30.04 in 10.0 mi Variable 3.5 mph - N/A   Clear
1:53 PM 63.0 °F - 36.0 °F 37% 30.03 in 10.0 mi NNW 5.8 mph - N/A   Clear
2:53 PM 63.0 °F - 37.9 °F 40% 30.01 in 10.0 mi NNW 8.1 mph - N/A   Clear
3:53 PM 63.0 °F - 36.0 °F 37% 30.01 in 10.0 mi NNW 9.2 mph - N/A   Clear
4:53 PM 60.1 °F - 37.0 °F 42% 30.03 in 10.0 mi WNW 4.6 mph - N/A   Clear
5:53 PM 55.0 °F - 37.0 °F 51% 30.04 in 10.0 mi Calm Calm - N/A   Clear
6:53 PM 54.0 °F - 35.1 °F 49% 30.05 in 10.0 mi ENE 3.5 mph - N/A   Clear
7:53 PM 51.1 °F - 37.0 °F 59% 30.07 in 10.0 mi Calm Calm - N/A   Overcast
8:53 PM 46.9 °F - 41.0 °F 80% 30.08 in 10.0 mi Calm Calm - N/A   Overcast
9:53 PM 46.0 °F 44.8 °F 39.9 °F 79% 30.08 in 10.0 mi NNE 3.5 mph - N/A   Partly Cloudy
11:53 PM 42.1 °F - 39.0 °F 89% 30.07 in 10.0 mi Calm Calm - N/A   Clear